User: anonymous   Login
Location: Lake Superior Provincial Park
(47.3335°N, 84.6162°W)
Time: 11:54:01
(UTC-05:00)
Language:

Cosmos 2333 Rocket - Orbit

View from above orbital plane
View from above orbital plane
View from above satellite
View from above satellite

Ground track
Ground track

The orbit data is extracted from the following two-line orbital elements,

1 24298U 96051B   16044.85618654 -.00000034  00000-0  81736-5 0  9992
2 24298  70.8352  13.5943 0017930 199.4691 160.5746 14.12387419  2726
Epoch (UTC): 13 February 2016 20:32:54
Eccentricity: 0.0017930
inclination: 70.8352°
perigee height: 838 km
apogee height: 864 km
right ascension of ascending node: 13.5943°
argument of perigee: 199.4691°
revolutions per day: 14.12387419
mean anomaly at epoch: 160.5746°
orbit number at epoch: 272

The dashed part of the orbit path shows where the satellite is in the earth's shadow,  

DLR